Probability
97 97 97 97 97 97 97 94 100 90 87 74 52 61 58 61 45 39 42 84 81 77 71 58 58 52 55 55 55 48 35 29 39 42 39 32 26 19 26 19 19 19 19
100 100 97 100 97 97 97 97 100 97 94 84 71 71 68 68 71 52 32 74 84 81 74 65 65 58 48 42 42 39 35 32 32 39 45 35 32 26 23 23 19 10 13
100 100 100 97 94 97 97 97 87 97 94 84 77 74 74 71 74 65 55 48 61 81 74 68 68 68 52 42 39 35 39 48 42 42 48 42 39 32 23 19 19 19 13
97 100 100 97 97 100 97 97 94 97 94 94 90 77 81 84 65 71 71 58 55 29 71 77 74 74 65 45 32 42 45 42 35 45 39 48 45 35 23 23 19 19 19
100 100 100 100 97 100 94 81 94 87 90 90 84 84 81 81 77 68 68 68 65 71 45 68 90 77 61 58 58 42 48 48 39 32 35 39 35 26 29 26 19 19 16
97 100 100 100 97 100 100 97 94 100 97 94 52 48 77 81 81 68 58 68 74 68 48 35 48 61 84 74 71 65 55 52 45 45 32 32 32 32 23 26 16 13 13
100 100 97 97 94 100 97 94 90 90 90 94 87 74 74 71 81 84 71 65 61 65 61 52 39 35 35 81 77 81 71 65 48 39 42 35 26 32 29 19 19 6 6
94 84 97 100 97 97 94 90 94 90 77 87 90 65 45 42 65 42 65 65 58 65 58 48 55 61 45 29 16 68 68 65 61 52 45 45 42 39 32 23 16 10 10
87 94 97 90 94 87 94 94 97 94 77 81 84 71 45 32 39 58 61 58 58 48 45 39 48 65 52 42 39 19 65 58 45 45 48 39 39 39 32 23 16 13 10
87 84 90 84 77 77 84 87 87 94 87 81 74 81 74 68 42 35 45 35 45 55 39 26 39 55 52 39 39 10 39 45 48 48 45 48 39 35 26 23 16 13 13
81 77 84 81 84 81 84 84 77 81 84 77 74 77 68 74 65 39 10 23 32 39 42 39 42 29 32 42 32 23 10 29 32 45 42 39 26 29 19 13 10 13 13
74 77 84 81 77 81 77 77 81 81 90 87 87 81 77 74 55 39 29 23 16 35 32 39 32 32 29 29 26 23 10 6 6 16 29 32 29 23 23 10 6 6 10
71 81 68 74 74 77 81 84 84 81 84 71 84 74 74 65 58 52 35 16 19 39 32 29 26 29 19 23 16 16 6 3 3 3 6 10 10 13 13 10 10 10 10
68 68 74 74 71 74 61 68 77 77 71 65 55 65 65 45 52 52 32 29 13 13 23 23 26 26 16 19 6 3 3 3 0 0 0 0 0 3 3 3 6 3 0
61 71 65 74 77 77 68 74 68 68 65 58 58 55 58 48 48 42 35 26 16 3 6 16 10 19 19 16 6 3 13 0 0 0 0 0 0 0 0 0 0 0 0
58 55 52 58 52 55 65 71 68 68 55 52 52 52 52 45 42 35 29 23 19 10 10 10 10 10 19 0 3 10 3 0 0 0 0 0 0 0 0 0 0 0 0
61 61 58 55 48 52 55 55 55 48 35 32 32 35 39 39 29 26 23 23 16 16 10 10 10 10 10 10 3 10 6 0 0 0 0 0 0 0 0 0 0 0 0
61 61 52 52 48 45 48 45 42 35 35 39 32 29 26 16 19 26 16 13 16 19 13 10 16 16 16 16 10 10 3 3 3 0 0 0 0 0 0 0 0 0 0
58 55 52 52 45 45 45 45 39 32 32 32 29 23 23 23 23 19 19 16 13 13 13 13 13 10 3 10 10 6 0 3 3 0 0 0 0 0 0 0 0 0 0
55 48 45 42 39 35 32 26 35 32 26 23 19 26 23 13 13 16 10 10 16 13 13 13 6 10 6 6 6 3 3 3 3 0 0 0 0 0 0 0 0 0 0
32 35 35 39 32 23 16 19 26 26 23 19 19 16 13 6 6 6 3 3 6 6 6 6 3 0 0 0 3 3 3 0 3 0 0 0 0 0 0 0 0 0 0
35 35 35 29 23 13 3 6 19 13 16 19 13 13 13 10 6 0 0 0 0 3 3 3 3 0 0 0 0 3 0 0 0 0 0 0 0 0 0 0 0 0 0
35 29 26 23 19 16 3 3 0 3 16 13 13 13 10 6 0 6 0 0 0 0 0 3 3 3 0 0 0 0 0 0 0 0 0 0 0 0 0 0 0 0 0
26 29 26 23 23 10 3 0 0 0 6 13 16 16 13 10 10 3 0 0 0 0 0 0 0 3 0 0 3 0 0 0 3 3 0 0 0 0 0 0 0 0 0
29 29 26 26 26 10 3 0 0 3 6 6 10 3 3 3 3 0 0 3 0 0 0 0 0 0 0 0 0 0 0 0 0 0 0 0 0 0 0 0 0 0 0
23 26 16 26 16 10 3 3 0 0 3 6 6 3 3 3 3 0 0 3 3 0 0 0 0 0 0 0 0 0 0 0 0 0 0 0 0 0 0 0 0 0 0
Height
5901 5902 5903 5903 5904 5905 5905 5906 5906 5907 5907 5907 5908 5908 5908 5909 5909 5910 5910 5910 5910 5910 5911 5911 5911 5910 5910 5911 5911 5911 5911 5911 5910 5910 5910 5910 5910 5909 5909 5909 5908 5908 5908
5901 5902 5903 5903 5904 5905 5905 5906 5906 5907 5907 5907 5908 5908 5908 5909 5909 5909 5909 5910 5910 5910 5910 5910 5910 5910 5910 5910 5910 5910 5910 5910 5909 5909 5909 5909 5909 5908 5908 5907 5907 5907 5906
5901 5901 5902 5903 5904 5905 5905 5906 5906 5907 5907 5907 5907 5908 5908 5908 5908 5908 5909 5909 5909 5909 5909 5909 5909 5909 5909 5909 5909 5909 5908 5908 5908 5908 5908 5908 5907 5907 5906 5906 5906 5905 5905
5900 5901 5902 5902 5903 5904 5905 5905 5906 5906 5907 5907 5907 5907 5907 5907 5908 5908 5908 5908 5908 5908 5908 5908 5908 5908 5908 5908 5908 5907 5907 5907 5907 5907 5906 5906 5906 5905 5905 5904 5904 5903 5903
5899 5900 5901 5902 5903 5903 5904 5905 5905 5906 5906 5906 5907 5907 5907 5907 5907 5907 5907 5907 5907 5907 5907 5907 5907 5907 5907 5906 5906 5906 5906 5906 5905 5905 5905 5904 5904 5903 5903 5902 5902 5901 5901
5898 5899 5900 5901 5902 5902 5903 5904 5904 5904 5905 5905 5906 5906 5906 5906 5906 5906 5906 5905 5905 5905 5905 5905 5905 5905 5905 5905 5904 5904 5904 5904 5903 5903 5902 5902 5901 5901 5900 5900 5899 5899 5898
5897 5898 5899 5900 5901 5901 5902 5902 5902 5903 5903 5904 5905 5905 5905 5904 5904 5904 5904 5904 5904 5904 5904 5903 5902 5903 5902 5902 5902 5902 5902 5901 5901 5900 5900 5899 5899 5898 5898 5897 5897 5896 5895
5894 5896 5897 5898 5899 5900 5900 5900 5900 5901 5902 5902 5903 5903 5903 5903 5902 5903 5902 5901 5902 5901 5901 5901 5900 5900 5900 5900 5900 5899 5899 5899 5898 5897 5897 5896 5896 5895 5895 5894 5893 5893 5892
5893 5894 5895 5896 5897 5898 5898 5898 5899 5899 5899 5900 5900 5901 5901 5901 5901 5901 5900 5900 5900 5899 5899 5898 5898 5898 5897 5896 5897 5896 5896 5895 5895 5894 5894 5893 5892 5892 5891 5890 5890 5889 5888
5891 5892 5893 5894 5895 5896 5896 5896 5897 5897 5897 5897 5898 5898 5899 5899 5899 5899 5898 5898 5897 5896 5896 5894 5895 5895 5894 5894 5893 5893 5892 5892 5891 5890 5890 5889 5889 5888 5887 5886 5885 5884 5883
5890 5890 5891 5892 5893 5893 5894 5894 5894 5894 5895 5895 5895 5895 5896 5896 5896 5896 5896 5895 5894 5894 5893 5892 5892 5891 5891 5890 5890 5889 5889 5888 5887 5887 5886 5885 5884 5883 5882 5882 5881 5880 5878
5888 5888 5889 5889 5890 5891 5891 5891 5891 5892 5892 5892 5892 5892 5892 5892 5892 5892 5892 5892 5891 5890 5889 5889 5888 5888 5888 5887 5886 5885 5884 5883 5883 5882 5881 5881 5880 5879 5877 5876 5875 5874 5873
5886 5886 5886 5887 5887 5888 5888 5888 5888 5888 5888 5888 5889 5888 5888 5888 5888 5888 5888 5888 5887 5887 5886 5885 5884 5884 5884 5883 5881 5880 5879 5878 5878 5877 5876 5875 5874 5873 5872 5871 5869 5868 5867
5883 5883 5883 5884 5884 5885 5885 5885 5885 5885 5885 5884 5884 5884 5884 5884 5884 5884 5884 5884 5883 5882 5882 5881 5880 5879 5879 5878 5877 5876 5875 5874 5873 5872 5871 5870 5869 5867 5866 5865 5863 5862 5860
5881 5881 5881 5881 5881 5881 5881 5881 5881 5881 5881 5881 5880 5880 5880 5880 5880 5880 5879 5879 5879 5878 5877 5876 5875 5874 5873 5873 5872 5871 5870 5869 5867 5866 5865 5864 5863 5861 5860 5858 5857 5855 5853
5879 5879 5879 5878 5878 5878 5877 5877 5877 5877 5877 5877 5876 5876 5876 5876 5876 5875 5875 5874 5874 5873 5872 5870 5869 5869 5868 5866 5865 5864 5864 5863 5862 5860 5859 5858 5856 5854 5853 5851 5849 5848 5846
5877 5876 5876 5875 5875 5874 5874 5873 5873 5873 5873 5872 5872 5871 5871 5871 5871 5870 5870 5869 5868 5867 5866 5865 5864 5863 5862 5861 5859 5858 5856 5856 5855 5854 5852 5851 5849 5847 5845 5843 5841 5839 5838
5874 5873 5873 5872 5872 5871 5870 5870 5869 5869 5869 5868 5868 5867 5867 5866 5866 5865 5865 5864 5862 5861 5860 5859 5858 5856 5855 5855 5853 5852 5851 5849 5848 5846 5845 5843 5841 5839 5837 5835 5833 5831 5829
5872 5870 5870 5869 5868 5867 5867 5866 5865 5865 5864 5864 5863 5863 5862 5862 5861 5860 5859 5858 5857 5856 5854 5853 5852 5850 5849 5848 5847 5845 5844 5843 5841 5839 5837 5835 5833 5831 5829 5827 5825 5823 5821
5869 5868 5867 5866 5865 5864 5863 5862 5862 5861 5860 5860 5859 5858 5857 5857 5856 5855 5853 5852 5851 5850 5848 5847 5845 5844 5843 5841 5839 5838 5837 5835 5834 5832 5830 5828 5826 5823 5821 5819 5817 5814 5811
5866 5865 5864 5863 5861 5860 5859 5858 5858 5857 5856 5855 5854 5853 5853 5851 5850 5849 5847 5846 5845 5843 5842 5840 5839 5837 5836 5834 5833 5831 5829 5827 5825 5824 5822 5820 5818 5815 5813 5810 5807 5805 5802
5864 5862 5861 5860 5858 5857 5855 5854 5853 5852 5851 5850 5849 5848 5847 5846 5844 5843 5842 5840 5839 5837 5835 5834 5832 5831 5829 5827 5825 5823 5822 5819 5817 5816 5813 5811 5809 5806 5804 5801 5798 5795 5792
5861 5859 5858 5856 5855 5853 5852 5851 5849 5848 5847 5846 5844 5843 5842 5840 5839 5838 5836 5834 5833 5831 5829 5828 5826 5824 5822 5820 5818 5815 5813 5811 5809 5807 5804 5802 5800 5797 5794 5791 5788 5785 5782
5857 5856 5854 5853 5851 5849 5848 5847 5845 5844 5843 5841 5840 5838 5837 5835 5834 5832 5830 5829 5827 5825 5823 5821 5819 5817 5815 5813 5810 5808 5805 5803 5801 5799 5796 5794 5791 5788 5784 5781 5778 5774 5771
5853 5852 5850 5849 5847 5845 5844 5843 5841 5840 5838 5837 5835 5833 5832 5830 5828 5826 5825 5823 5821 5819 5816 5814 5812 5810 5807 5805 5802 5800 5798 5795 5793 5790 5787 5784 5781 5779 5775 5772 5768 5764 5760
5850 5848 5846 5844 5843 5841 5839 5838 5836 5835 5833 5832 5830 5828 5826 5824 5822 5820 5819 5817 5814 5812 5810 5807 5805 5802 5800 5797 5795 5792 5790 5787 5784 5781 5778 5775 5771 5769 5766 5762 5758 5754 5750
Wind_Speed
3 4 4 5 4 4 4 3 3 3 3 2 2 3 3 2 2 1 1 1 2 2 2 2 3 3 3 3 3 3 4 4 4 4 4 4 4 5 5 5 5 6 6
4 4 4 5 5 5 4 4 4 3 2 2 2 3 3 2 2 2 2 2 2 3 3 3 4 4 3 4 4 4 4 4 5 5 5 5 5 5 6 6 6 6 6
5 4 4 4 5 5 5 4 4 4 3 2 2 3 3 3 3 3 3 3 3 4 4 4 4 5 4 5 5 5 5 5 6 6 6 6 6 6 6 7 7 6 7
6 5 5 5 4 5 5 5 5 5 4 4 3 3 4 4 4 4 4 4 5 5 5 5 5 5 5 5 6 5 6 7 7 8 8 8 8 8 8 8 8 8 8
7 6 6 6 6 6 6 6 6 6 5 5 5 4 5 5 5 5 6 6 6 6 6 6 7 7 7 7 7 7 7 8 9 9 9 9 9 9 9 9 9 10 10
8 7 7 6 6 6 7 7 7 7 7 7 6 6 6 7 6 6 6 6 7 7 7 8 8 9 9 9 9 9 9 10 10 11 11 10 10 10 10 10 11 11 11
9 9 8 8 7 7 7 8 9 9 9 8 8 8 8 8 8 8 8 8 8 8 8 9 9 10 10 10 11 11 11 12 12 12 12 12 11 11 11 12 12 13 13
10 10 10 10 9 9 8 9 10 10 9 9 9 9 9 9 8 9 9 10 10 10 10 10 10 11 11 12 12 12 13 13 14 13 14 14 13 14 14 15 15 15 15
9 10 10 10 10 9 9 10 10 10 10 10 11 11 10 10 10 10 10 10 11 11 12 12 11 12 12 12 12 13 13 14 15 15 15 15 15 16 16 17 16 16 17
8 9 10 10 10 10 10 10 10 11 11 11 11 12 12 12 12 11 11 11 11 12 13 12 13 13 13 12 13 14 15 15 15 16 17 17 17 17 18 18 18 18 19
9 10 10 10 11 11 11 11 11 11 12 12 12 13 14 14 14 13 13 13 13 13 14 15 15 14 15 15 15 16 17 17 17 17 17 18 19 20 20 20 21 20 21
10 11 11 11 12 12 12 12 12 13 13 14 14 14 15 15 15 15 15 15 15 16 16 17 17 17 17 17 18 18 18 18 18 19 20 20 21 22 22 22 23 23 23
10 10 11 12 13 14 14 14 15 15 15 15 15 16 16 16 17 17 17 17 17 18 18 18 18 18 19 19 19 19 20 20 21 21 21 21 21 21 22 23 24 24 24
10 10 11 12 13 14 14 15 15 16 16 17 17 17 17 17 18 19 19 18 19 19 19 19 19 20 21 21 21 21 21 22 22 22 22 22 22 23 24 24 25 25 26
11 11 11 12 13 14 15 16 17 17 17 17 18 18 19 19 19 19 19 19 20 20 21 21 21 21 22 23 22 22 22 22 22 23 23 23 24 25 26 27 27 27 28
11 11 12 13 13 14 16 17 18 18 18 17 18 18 18 19 20 20 21 21 21 22 22 23 23 23 24 24 24 24 23 23 23 24 25 25 26 27 28 28 28 29 30
11 12 13 13 14 15 15 15 16 17 17 17 17 17 18 19 20 20 21 21 23 24 23 24 24 25 25 25 26 26 25 24 25 25 26 26 27 27 28 29 30 30 32
11 12 12 13 14 15 15 16 16 16 16 17 17 18 19 20 20 21 22 23 24 25 25 25 26 25 25 25 26 27 26 27 27 27 27 27 28 28 29 30 31 31 32
13 13 13 14 15 15 15 15 15 15 16 17 17 18 19 20 20 21 22 23 24 24 24 25 26 26 26 26 27 27 27 28 29 29 29 29 30 30 30 30 31 32 34
14 14 14 15 15 16 16 16 16 17 17 18 18 19 19 20 21 22 23 24 25 24 25 25 26 26 26 27 28 28 28 29 30 30 30 30 31 31 31 32 32 33 35
15 15 15 15 16 16 17 17 17 18 18 18 19 20 20 21 22 23 23 24 25 25 25 25 26 27 27 27 28 28 29 30 31 31 31 31 32 32 32 32 33 34 35
16 16 16 16 16 16 16 16 17 18 18 19 19 20 21 21 22 23 23 24 24 25 25 26 27 27 27 27 29 29 30 30 31 31 31 31 31 32 33 34 35 35 36
17 17 17 17 17 17 17 17 18 19 19 19 20 20 20 21 21 22 23 23 24 25 25 26 26 27 27 28 30 30 30 30 30 30 31 32 32 34 35 35 36 37 38
18 18 18 18 18 18 18 19 19 20 20 20 20 20 20 21 22 22 22 23 23 25 26 27 26 27 28 29 29 29 29 30 30 32 33 34 34 35 35 36 37 38 40
19 19 19 19 19 19 19 20 21 21 21 21 21 22 23 23 23 23 24 24 25 26 26 27 27 27 28 28 28 28 29 30 32 33 34 34 35 35 37 37 38 38 39
21 21 20 19 20 20 21 21 21 22 22 22 23 24 24 24 25 25 25 25 25 26 27 28 28 28 28 27 28 29 30 31 32 33 33 34 36 37 37 37 37 38 39
Wind_Direction
226 214 214 208 203 202 196 197 198 200 206 207 205 203 202 208 205 227 259 276 283 289 286 299 310 306 288 288 285 290 295 301 297 291 294 295 307 307 305 298 293 288 292
243 230 224 221 219 217 215 208 210 209 218 216 208 214 226 234 235 241 264 276 285 290 290 297 306 307 297 290 287 291 291 292 291 292 292 290 296 304 302 298 295 286 285
243 238 227 230 225 228 226 222 223 228 232 230 234 236 240 245 245 254 270 276 282 285 290 300 307 307 300 291 288 289 288 285 289 292 290 288 292 300 304 296 292 290 288
241 244 240 239 239 246 239 232 234 240 245 245 249 254 257 256 259 263 268 274 280 281 284 290 302 305 303 296 293 294 291 290 292 292 290 293 291 293 298 300 290 287 287
234 240 245 246 247 250 245 242 245 249 252 257 260 266 271 270 269 269 273 277 281 281 283 287 294 299 296 294 291 292 293 291 292 294 290 290 287 287 292 295 291 287 286
235 239 246 252 253 255 254 253 253 253 256 262 266 267 267 273 276 276 276 280 285 286 285 286 289 292 293 291 289 289 290 291 290 289 291 290 288 286 288 291 291 289 286
242 243 250 255 257 258 260 260 258 257 259 265 270 271 271 273 277 279 280 282 283 286 287 285 286 291 291 288 287 286 287 288 289 288 291 290 286 286 288 289 291 288 287
249 244 253 256 258 264 266 263 262 262 263 265 268 271 274 275 275 282 281 284 285 287 288 288 286 290 288 286 286 287 287 286 285 287 288 290 288 287 288 287 290 290 289
256 247 249 255 259 265 267 264 264 263 265 268 267 267 269 275 280 283 284 286 288 285 285 284 285 291 289 288 289 288 289 288 287 285 287 287 288 288 288 287 288 288 289
260 250 250 257 260 265 267 267 268 267 267 271 271 270 268 269 274 279 284 287 289 286 286 287 286 289 290 290 288 287 289 289 287 287 286 286 286 287 287 287 286 287 287
264 260 258 258 262 262 266 269 271 268 269 271 273 273 273 272 273 276 280 283 285 285 286 286 288 287 290 289 289 288 287 287 286 286 286 285 286 286 286 286 285 285 286
270 266 262 261 261 264 268 270 270 272 272 273 273 273 273 274 275 277 277 278 280 282 284 285 284 286 288 287 287 288 287 285 285 286 287 286 287 286 285 285 283 283 284
279 274 266 265 264 265 267 269 271 271 273 274 275 274 274 274 277 279 278 278 279 281 282 282 283 285 286 286 287 286 285 286 286 287 288 289 289 289 287 286 285 283 283
287 283 277 272 268 266 268 269 272 273 273 276 276 275 276 277 278 280 280 281 282 282 283 283 283 284 286 287 288 288 286 286 287 287 288 288 289 289 288 287 286 285 285
291 289 284 282 277 276 274 272 271 272 274 276 277 275 276 276 279 282 282 282 284 285 285 283 284 285 287 287 286 288 289 289 287 287 289 291 290 290 289 289 288 287 286
293 291 289 287 285 284 280 277 273 274 275 276 277 278 278 278 280 282 285 284 284 286 286 284 284 287 288 287 285 287 288 289 289 290 290 290 291 290 290 291 291 289 289
295 296 293 291 287 287 288 285 282 277 276 278 281 283 284 281 280 282 284 284 286 287 287 286 285 287 288 288 287 288 287 287 288 289 291 292 291 291 290 290 290 290 289
301 299 297 294 290 287 285 285 282 278 278 280 283 284 284 283 283 284 286 287 287 288 287 287 287 288 288 291 289 288 288 287 288 290 290 290 290 290 290 289 289 289 290
306 307 302 299 295 291 288 285 286 285 284 285 286 286 285 285 285 287 288 288 288 288 287 288 288 288 289 290 289 288 287 286 287 289 289 289 288 289 289 288 289 289 290
309 307 306 303 299 295 291 287 287 289 289 288 289 289 288 288 288 288 289 290 290 290 288 287 288 288 290 289 288 288 288 287 287 288 288 289 289 289 289 289 289 290 291
310 309 307 305 302 300 295 291 289 289 291 290 290 290 289 291 292 293 292 292 290 291 291 290 289 289 290 289 289 290 291 290 289 289 290 290 290 289 289 290 290 290 291
310 308 307 307 306 304 301 299 296 294 293 293 293 292 289 289 291 293 294 293 294 294 294 292 290 290 292 292 291 291 292 291 292 292 291 291 291 290 290 291 291 292 293
309 309 307 306 304 303 302 299 297 297 297 298 297 296 295 292 293 293 295 296 296 297 296 296 293 291 291 293 293 292 292 293 293 293 292 292 292 293 292 292 293 294 294
306 304 305 305 304 303 303 302 300 298 297 298 298 297 297 296 296 295 296 298 298 299 297 297 297 295 294 294 292 292 293 294 294 294 293 293 293 293 293 294 294 294 295
307 304 303 303 303 303 302 302 300 298 297 297 298 298 297 297 298 297 298 299 299 299 299 298 296 295 295 294 294 294 295 294 295 295 295 295 296 296 296 295 295 296 296
309 307 305 303 303 302 301 300 300 299 299 299 299 299 299 298 298 298 298 298 299 300 299 299 299 299 297 296 296 297 298 297 298 297 297 296 297 297 296 296 297 297 297